Weather History for KALK - January, 2013

Change the Weather History Date:

Wednesday, January 9, 2013

  Actual Average (KFHU) Record (KFHU)
Temperature  
Mean Temperature 46 °F -  
Max Temperature 59 °F 59 °F 73 °F (1990)
Min Temperature 33 °F 37 °F 23 °F (1986)
Degree Days  
Heating Degree Days 19    
Moisture  
Dew Point 15 °F    
Average Humidity 31    
Maximum Humidity 54    
Minimum Humidity 14    
Precipitation  
Precipitation 0.00 in - - ()
Sea Level Pressure  
Sea Level Pressure 30.05 in    
Wind  
Wind Speed 7 mph (ESE)    
Max Wind Speed 16 mph    
Max Gust Speed 22 mph    
Averages and records for this station are not official NWS values.
T = Trace of Precipitation, MM = Missing Value Source: NWS Daily Summary

Daily Weather History Graph

Daily Weather History Graph

Search for Another Location

Airport or City:

Trip Planner

Search our weather history database for the weather conditions in past years. The results will help you decide how hot, cold, wet, or windy it might be!

Date:

Astronomy

Jan. 09, 2013 Rise Set
Actual Time 7:22 AM MST 5:36 PM MST
Civil Twilight 6:55 AM MST 6:02 PM MST
Nautical Twilight 6:25 AM MST 6:32 PM MST
Astronomical Twilight 5:56 AM MST 7:02 PM MST
Moon 5:04 AM MST (1/9) 3:41 PM MST (1/9)
Length of Visible Light 11h 06m
Length of Day
10h 13m
Waning Crescent, 6% of the Moon is Illuminated
Jan 9
Waning Crescent
Jan 11
New
Jan 18
First Quarter
Jan 26
Full
Feb 3
Last Quarter

Hourly Weather History & Observations

Time (MST) Temp. Windchill Dew Point Humidity Pressure Visibility Wind Dir Wind Speed Gust Speed Precip Events Conditions
12:56 AM 33.1 °F 28.7 °F 18.0 °F 54% 30.01 in - NW 4.6 mph - N/A   Clear
1:56 AM 33.1 °F 27.7 °F 18.0 °F 54% 30.02 in - West 5.8 mph - N/A   Clear
2:56 AM 37.0 °F 34.5 °F 18.0 °F 46% 30.03 in - SE 3.5 mph - N/A   Clear
3:56 AM 39.9 °F 37.8 °F 18.0 °F 41% 30.04 in - SE 3.5 mph - N/A   Clear
4:56 AM 39.0 °F 35.7 °F 18.0 °F 43% 30.06 in - ESE 4.6 mph - N/A   Clear
5:56 AM 37.9 °F 34.4 °F 18.0 °F 45% 30.10 in - ESE 4.6 mph - N/A   Clear
7:56 AM 41.0 °F - 18.0 °F 40% 30.15 in - Calm Calm - N/A   Clear
8:56 AM 46.0 °F 42.5 °F 19.0 °F 34% 30.15 in - NE 6.9 mph - N/A   Clear
9:56 AM 48.9 °F - 19.0 °F 31% 30.16 in - NE 6.9 mph - N/A   Clear
11:56 AM 55.9 °F - 14.0 °F 19% 30.09 in - East 16.1 mph 21.9 mph N/A   Clear
12:56 PM 57.9 °F - 12.0 °F 16% 30.06 in - ENE 10.4 mph - N/A   Clear
1:56 PM 59.0 °F - 10.0 °F 14% 30.05 in - East 13.8 mph - N/A   Clear
2:56 PM 59.0 °F - 9.0 °F 14% 30.03 in - ESE 13.8 mph 18.4 mph N/A   Clear
3:56 PM 59.0 °F - 9.0 °F 14% 30.00 in - ESE 13.8 mph - N/A   Clear
4:56 PM 55.9 °F - 10.9 °F 17% 30.01 in - East 8.1 mph - N/A   Clear
5:56 PM 46.9 °F - 12.0 °F 24% 30.03 in - SE 8.1 mph - N/A   Clear
6:56 PM 46.0 °F 42.5 °F 12.9 °F 26% 30.04 in - South 6.9 mph - N/A   Clear
7:56 PM 44.1 °F 42.5 °F 15.1 °F 31% 30.04 in - West 3.5 mph - N/A   Clear
8:56 PM 45.0 °F 38.2 °F 12.9 °F 27% 30.01 in - ESE 15.0 mph - N/A   Clear
9:56 PM 48.0 °F - 15.1 °F 27% 29.99 in - ESE 12.7 mph - N/A   Clear
10:56 PM 44.1 °F 39.5 °F 14.0 °F 30% 29.98 in - SE 8.1 mph - N/A   Clear
11:56 PM 37.0 °F 31.0 °F 15.1 °F 41% 30.00 in - WSW 8.1 mph - N/A   Clear